Time,TemperatureF,DewpointF,PressureIn,WindDirection,WindDirectionDegrees,WindSpeedMPH,WindSpeedGustMPH,Humidity,HourlyPrecipIn,Conditions,Clouds,dailyrainin,SoftwareType,DateUTC
2013-02-21 00:01:00,-57.0,-54.4,0.00,NNE,18,96.0,0.0,100,0.00,,,-99.99,,2013-02-21 05:01:00,
2013-02-21 00:07:00,-57.0,-54.4,0.00,NNE,18,96.0,0.0,100,0.00,,,-99.99,,2013-02-21 05:07:00,
2013-02-21 00:13:00,-57.0,-54.4,0.00,NNE,18,96.0,0.0,100,0.00,,,-99.99,,2013-02-21 05:13:00,
2013-02-21 00:19:00,22.0,16.3,30.30,WNW,292,3.0,0.0,76,0.00,,,-99.99,,2013-02-21 05:19:00,
2013-02-21 00:25:00,-57.0,-54.4,0.00,NNE,18,96.0,0.0,100,0.00,,,-99.99,,2013-02-21 05:25:00,
2013-02-21 00:31:00,22.0,16.9,30.31,West,281,3.0,0.0,78,0.00,,,-99.99,,2013-02-21 05:31:00,
2013-02-21 00:37:00,22.0,16.6,30.31,North,4,2.0,0.0,77,0.00,,,-99.99,,2013-02-21 05:37:00,
2013-02-21 00:43:00,22.0,16.6,30.31,WNW,303,4.0,0.0,77,0.00,,,-99.99,,2013-02-21 05:43:00,
2013-02-21 00:49:00,22.0,16.6,30.31,NNW,347,4.0,0.0,77,0.00,,,-99.99,,2013-02-21 05:49:00,
2013-02-21 00:55:00,22.0,16.9,30.32,WNW,295,3.0,0.0,78,0.00,,,-99.99,,2013-02-21 05:55:00,
2013-02-21 01:01:00,-57.0,-54.4,0.00,NNE,18,96.0,0.0,100,0.00,,,-99.99,,2013-02-21 06:01:00,
2013-02-21 01:07:00,-57.0,-54.4,0.00,NNE,18,96.0,0.0,100,0.00,,,-99.99,,2013-02-21 06:07:00,
2013-02-21 01:13:00,22.0,17.1,30.32,NW,316,3.0,0.0,79,0.00,,,-99.99,,2013-02-21 06:13:00,
2013-02-21 01:19:00,22.0,16.6,30.32,WNW,288,9.0,0.0,77,0.00,,,-99.99,,2013-02-21 06:19:00,
2013-02-21 01:27:00,22.0,16.3,30.32,WNW,299,5.0,0.0,76,0.00,,,-99.99,,2013-02-21 06:27:00,
2013-02-21 01:34:00,22.0,16.0,30.32,NNW,330,3.0,0.0,75,0.00,,,-99.99,,2013-02-21 06:34:00,
2013-02-21 01:40:00,22.0,16.3,30.32,NW,320,6.0,0.0,76,0.00,,,-99.99,,2013-02-21 06:40:00,
2013-02-21 01:46:00,22.0,16.3,30.32,NW,314,4.0,0.0,76,0.00,,,-99.99,,2013-02-21 06:46:00,
2013-02-21 01:52:00,22.0,16.3,30.32,NNW,341,2.0,0.0,76,0.00,,,-99.99,,2013-02-21 06:52:00,
2013-02-21 01:58:00,22.0,16.3,30.32,North,350,3.0,0.0,76,0.00,,,-99.99,,2013-02-21 06:58:00,
2013-02-21 02:04:00,22.0,16.3,30.32,NW,311,2.0,0.0,76,0.00,,,-99.99,,2013-02-21 07:04:00,
2013-02-21 02:10:00,22.0,16.3,30.32,WNW,294,4.0,0.0,76,0.00,,,-99.99,,2013-02-21 07:10:00,
2013-02-21 02:16:00,22.0,16.3,30.32,WNW,300,8.0,0.0,76,0.00,,,-99.99,,2013-02-21 07:16:00,
2013-02-21 02:22:00,22.0,16.6,30.32,West,266,6.0,0.0,77,0.00,,,-99.99,,2013-02-21 07:22:00,
2013-02-21 02:28:00,22.0,16.0,30.32,WNW,301,6.0,0.0,75,0.00,,,-99.99,,2013-02-21 07:28:00,
2013-02-21 02:34:00,-57.0,-54.4,0.00,NNE,18,96.0,0.0,100,0.00,,,-99.99,,2013-02-21 07:34:00,
2013-02-21 02:57:00,22.0,16.3,30.32,WNW,289,1.0,0.0,76,0.00,,,-99.99,,2013-02-21 07:57:00,
2013-02-21 03:04:00,22.0,16.3,30.32,WNW,284,5.0,0.0,76,0.00,,,-99.99,,2013-02-21 08:04:00,
2013-02-21 03:10:00,22.0,16.6,30.32,WNW,301,5.0,0.0,77,0.00,,,-99.99,,2013-02-21 08:10:00,
2013-02-21 03:16:00,22.0,16.3,30.33,West,278,4.0,0.0,76,0.00,,,-99.99,,2013-02-21 08:16:00,
2013-02-21 03:22:00,22.0,16.3,30.32,NNW,334,3.0,0.0,76,0.00,,,-99.99,,2013-02-21 08:22:00,
2013-02-21 03:28:00,22.0,16.6,30.32,NW,314,3.0,0.0,77,0.00,,,-99.99,,2013-02-21 08:28:00,
2013-02-21 03:34:00,22.0,16.6,30.32,NNW,345,1.0,0.0,77,0.00,,,-99.99,,2013-02-21 08:34:00,
2013-02-21 03:42:00,22.0,17.1,30.33,WNW,299,4.0,0.0,79,0.00,,,-99.99,,2013-02-21 08:42:00,
2013-02-21 03:49:00,22.0,16.6,30.33,WNW,299,3.0,0.0,77,0.00,,,-99.99,,2013-02-21 08:49:00,
2013-02-21 03:55:00,22.0,16.6,30.32,West,279,3.0,0.0,77,0.00,,,-99.99,,2013-02-21 08:55:00,
2013-02-21 04:01:00,22.0,16.6,30.32,WNW,301,4.0,0.0,77,0.00,,,-99.99,,2013-02-21 09:01:00,
2013-02-21 04:07:00,-57.0,-54.4,0.00,NNE,18,96.0,0.0,100,0.00,,,-99.99,,2013-02-21 09:07:00,
2013-02-21 04:13:00,22.0,16.3,30.32,NW,305,5.0,0.0,76,0.00,,,-99.99,,2013-02-21 09:13:00,
2013-02-21 04:19:00,22.0,16.6,30.32,WSW,256,5.0,0.0,77,0.00,,,-99.99,,2013-02-21 09:19:00,
2013-02-21 04:25:00,22.0,16.6,30.32,NW,323,2.0,0.0,77,0.00,,,-99.99,,2013-02-21 09:25:00,
2013-02-21 04:31:00,22.0,16.9,30.32,WNW,296,6.0,0.0,78,0.00,,,-99.99,,2013-02-21 09:31:00,
2013-02-21 04:37:00,22.0,16.6,30.32,NNW,328,2.0,0.0,77,0.00,,,-99.99,,2013-02-21 09:37:00,
2013-02-21 04:43:00,22.0,16.9,30.32,WNW,297,3.0,0.0,78,0.00,,,-99.99,,2013-02-21 09:43:00,
2013-02-21 04:49:00,22.0,16.9,30.32,West,276,5.0,0.0,78,0.00,,,-99.99,,2013-02-21 09:49:00,
2013-02-21 04:55:00,22.0,16.6,30.33,NW,314,3.0,0.0,77,0.00,,,-99.99,,2013-02-21 09:55:00,
2013-02-21 05:01:00,22.0,16.9,30.33,NW,312,2.0,0.0,78,0.00,,,-99.99,,2013-02-21 10:01:00,
2013-02-21 05:07:00,22.0,16.9,30.33,NW,319,2.0,0.0,78,0.00,,,-99.99,,2013-02-21 10:07:00,
2013-02-21 05:13:00,22.0,16.9,30.33,North,354,1.0,0.0,78,0.00,,,-99.99,,2013-02-21 10:13:00,
2013-02-21 05:19:00,22.0,16.9,30.33,NW,305,2.0,0.0,78,0.00,,,-99.99,,2013-02-21 10:19:00,
2013-02-21 05:25:00,22.0,16.6,30.33,WNW,287,5.0,0.0,77,0.00,,,-99.99,,2013-02-21 10:25:00,
2013-02-21 05:31:00,-57.0,-54.4,0.00,NNE,18,96.0,0.0,100,0.00,,,-99.99,,2013-02-21 10:31:00,
2013-02-21 05:37:00,22.0,16.6,30.33,NW,314,4.0,0.0,77,0.00,,,-99.99,,2013-02-21 10:37:00,
2013-02-21 05:43:00,-57.0,-54.4,0.00,NNE,18,96.0,0.0,100,0.00,,,-99.99,,2013-02-21 10:43:00,
2013-02-21 05:49:00,22.0,16.6,30.33,NNW,328,3.0,0.0,77,0.00,,,-99.99,,2013-02-21 10:49:00,
2013-02-21 05:55:00,21.0,15.9,30.33,West,272,0.0,0.0,78,0.00,,,-99.99,,2013-02-21 10:55:00,
2013-02-21 06:01:00,21.0,15.9,30.33,NW,324,0.0,0.0,78,0.00,,,-99.99,,2013-02-21 11:01:00,
2013-02-21 06:07:00,22.0,16.9,30.34,NW,310,3.0,0.0,78,0.00,,,-99.99,,2013-02-21 11:07:00,
2013-02-21 06:13:00,-57.0,-54.4,0.00,NNE,18,96.0,0.0,100,0.00,,,-99.99,,2013-02-21 11:13:00,
2013-02-21 06:19:00,-57.0,-54.4,0.00,NNE,18,96.0,0.0,100,0.00,,,-99.99,,2013-02-21 11:19:00,
2013-02-21 06:25:00,22.0,17.1,30.34,North,359,2.0,0.0,79,0.00,,,-99.99,,2013-02-21 11:25:00,
2013-02-21 06:31:00,22.0,17.1,30.35,North,354,2.0,0.0,79,0.00,,,-99.99,,2013-02-21 11:31:00,
2013-02-21 06:37:00,-57.0,-54.4,0.00,NNE,18,96.0,0.0,100,0.00,,,-99.99,,2013-02-21 11:37:00,
2013-02-21 06:43:00,-57.0,-54.4,0.00,NNE,18,96.0,0.0,100,0.00,,,-99.99,,2013-02-21 11:43:00,
2013-02-21 06:49:00,22.0,16.9,30.35,NNW,346,3.0,0.0,78,0.00,,,-99.99,,2013-02-21 11:49:00,
2013-02-21 06:55:00,22.0,16.9,30.35,NW,323,4.0,0.0,78,0.00,,,-99.99,,2013-02-21 11:55:00,
2013-02-21 07:01:00,-57.0,-54.4,0.00,NNE,18,96.0,0.0,100,0.00,,,-99.99,,2013-02-21 12:01:00,
2013-02-21 07:07:00,22.0,16.9,30.36,NW,326,3.0,0.0,78,0.00,,,-99.99,,2013-02-21 12:07:00,
2013-02-21 07:14:00,21.0,16.1,30.36,NNE,19,1.0,0.0,79,0.00,,,-99.99,,2013-02-21 12:14:00,
2013-02-21 07:19:00,22.0,16.9,30.37,North,359,4.0,0.0,78,0.00,,,-99.99,,2013-02-21 12:19:00,
2013-02-21 07:25:00,22.0,16.9,30.37,North,4,5.0,0.0,78,0.00,,,-99.99,,2013-02-21 12:25:00,
2013-02-21 07:31:00,21.0,15.9,30.37,NNE,18,0.0,0.0,78,0.00,,,-99.99,,2013-02-21 12:31:00,
2013-02-21 07:37:00,21.0,15.9,30.38,NNE,27,2.0,0.0,78,0.00,,,-99.99,,2013-02-21 12:37:00,
2013-02-21 07:43:00,22.0,17.1,30.38,North,8,5.0,0.0,79,0.00,,,-99.99,,2013-02-21 12:43:00,
2013-02-21 07:49:00,22.0,16.9,30.38,North,4,1.0,0.0,78,0.00,,,-99.99,,2013-02-21 12:49:00,
2013-02-21 07:56:00,22.0,17.1,30.37,NNE,12,3.0,0.0,79,0.00,,,-99.99,,2013-02-21 12:56:00,
2013-02-21 08:01:00,22.0,17.1,30.35,NNE,21,5.0,0.0,79,0.00,,,-99.99,,2013-02-21 13:01:00,
2013-02-21 08:07:00,22.0,17.1,30.35,NNE,13,5.0,0.0,79,0.00,,,-99.99,,2013-02-21 13:07:00,
2013-02-21 08:13:00,-57.0,-54.4,0.00,NNE,18,96.0,0.0,100,0.00,,,-99.99,,2013-02-21 13:13:00,
2013-02-21 08:19:00,22.0,17.1,30.36,NNE,31,5.0,0.0,79,0.00,,,-99.99,,2013-02-21 13:19:00,
2013-02-21 08:25:00,22.0,16.9,30.36,North,10,3.0,0.0,78,0.00,,,-99.99,,2013-02-21 13:25:00,
2013-02-21 08:31:00,22.0,17.1,30.36,NNE,27,4.0,0.0,79,0.00,,,-99.99,,2013-02-21 13:31:00,
2013-02-21 08:37:00,22.0,17.1,30.37,North,359,1.0,0.0,79,0.00,,,-99.99,,2013-02-21 13:37:00,
2013-02-21 08:43:00,22.0,17.1,30.37,North,359,0.0,0.0,79,0.00,,,-99.99,,2013-02-21 13:43:00,
2013-02-21 08:49:00,22.0,16.9,30.37,North,359,2.0,0.0,78,0.00,,,-99.99,,2013-02-21 13:49:00,
2013-02-21 08:55:00,22.0,16.9,30.38,NNE,18,1.0,0.0,78,0.00,,,-99.99,,2013-02-21 13:55:00,
2013-02-21 09:01:00,22.0,16.9,30.37,North,354,3.0,0.0,78,0.00,,,-99.99,,2013-02-21 14:01:00,
2013-02-21 09:07:00,22.0,16.9,30.37,NNE,29,3.0,0.0,78,0.00,,,-99.99,,2013-02-21 14:07:00,
2013-02-21 09:13:00,22.0,16.6,30.38,NE,45,5.0,0.0,77,0.00,,,-99.99,,2013-02-21 14:13:00,
2013-02-21 09:19:00,22.0,16.6,30.37,NNE,27,1.0,0.0,77,0.00,,,-99.99,,2013-02-21 14:19:00,
2013-02-21 09:25:00,22.0,16.9,30.37,NE,51,3.0,0.0,78,0.00,,,-99.99,,2013-02-21 14:25:00,
2013-02-21 09:31:00,22.0,16.9,30.37,NE,43,6.0,0.0,78,0.00,,,-99.99,,2013-02-21 14:31:00,
2013-02-21 09:37:00,22.0,16.3,30.37,NE,37,3.0,0.0,76,0.00,,,-99.99,,2013-02-21 14:37:00,
2013-02-21 09:43:00,22.0,16.3,30.37,ENE,60,5.0,0.0,76,0.00,,,-99.99,,2013-02-21 14:43:00,
2013-02-21 09:49:00,23.0,17.6,30.37,East,93,6.0,0.0,77,0.00,,,-99.99,,2013-02-21 14:49:00,
2013-02-21 09:55:00,23.0,17.3,30.37,ENE,60,5.0,0.0,76,0.00,,,-99.99,,2013-02-21 14:55:00,
2013-02-21 10:01:00,23.0,17.3,30.38,East,101,3.0,0.0,76,0.00,,,-99.99,,2013-02-21 15:01:00,
2013-02-21 10:07:00,23.0,17.3,30.39,ENE,77,3.0,0.0,76,0.00,,,-99.99,,2013-02-21 15:07:00,
2013-02-21 10:13:00,23.0,17.3,30.39,East,87,6.0,0.0,76,0.00,,,-99.99,,2013-02-21 15:13:00,
2013-02-21 10:19:00,23.0,17.3,30.38,ENE,58,5.0,0.0,76,0.00,,,-99.99,,2013-02-21 15:19:00,
2013-02-21 10:25:00,23.0,17.0,30.37,ENE,58,3.0,0.0,75,0.00,,,-99.99,,2013-02-21 15:25:00,
2013-02-21 10:32:00,23.0,17.0,30.37,East,81,6.0,0.0,75,0.00,,,-99.99,,2013-02-21 15:32:00,
2013-02-21 10:37:00,-57.0,-54.4,0.00,NNE,18,96.0,0.0,100,0.00,,,-99.99,,2013-02-21 15:37:00,
2013-02-21 10:43:00,23.0,17.3,30.38,NNE,32,2.0,0.0,76,0.00,,,-99.99,,2013-02-21 15:43:00,
2013-02-21 10:49:00,23.0,17.3,30.38,NNE,32,2.0,0.0,76,0.00,,,-99.99,,2013-02-21 15:49:00,
2013-02-21 10:55:00,23.0,17.0,30.38,NE,41,3.0,0.0,75,0.00,,,-99.99,,2013-02-21 15:55:00,
2013-02-21 11:01:00,23.0,17.0,30.38,NE,41,3.0,0.0,75,0.00,,,-99.99,,2013-02-21 16:01:00,
2013-02-21 11:07:00,23.0,17.3,30.37,ENE,58,2.0,0.0,76,0.00,,,-99.99,,2013-02-21 16:07:00,
2013-02-21 11:13:00,24.0,18.3,30.37,NE,42,7.0,0.0,76,0.00,,,-99.99,,2013-02-21 16:13:00,
2013-02-21 11:19:00,23.0,17.0,30.37,NNE,32,4.0,0.0,75,0.00,,,-99.99,,2013-02-21 16:19:00,
2013-02-21 11:25:00,24.0,18.0,30.36,ENE,76,3.0,0.0,75,0.00,,,-99.99,,2013-02-21 16:25:00,
2013-02-21 11:31:00,24.0,17.7,30.36,NE,41,5.0,0.0,74,0.00,,,-99.99,,2013-02-21 16:31:00,
2013-02-21 11:37:00,24.0,17.7,30.37,NE,41,2.0,0.0,74,0.00,,,-99.99,,2013-02-21 16:37:00,
2013-02-21 11:43:00,24.0,17.7,30.37,ENE,78,5.0,0.0,74,0.00,,,-99.99,,2013-02-21 16:43:00,
2013-02-21 11:49:00,24.0,17.7,30.37,ENE,66,3.0,0.0,74,0.00,,,-99.99,,2013-02-21 16:49:00,
2013-02-21 11:55:00,24.0,17.7,30.37,ESE,103,5.0,0.0,74,0.00,,,-99.99,,2013-02-21 16:55:00,
2013-02-21 12:01:00,-57.0,-54.4,0.00,NNE,18,96.0,0.0,100,0.00,,,-99.99,,2013-02-21 17:01:00,
2013-02-21 12:07:00,24.0,17.7,30.38,ENE,58,0.0,0.0,74,0.00,,,-99.99,,2013-02-21 17:07:00,
2013-02-21 12:13:00,24.0,18.0,30.38,ENE,68,2.0,0.0,75,0.00,,,-99.99,,2013-02-21 17:13:00,
2013-02-21 12:19:00,24.0,17.7,30.38,ESE,114,0.0,0.0,74,0.00,,,-99.99,,2013-02-21 17:19:00,
2013-02-21 12:25:00,25.0,18.7,30.38,East,91,3.0,0.0,74,0.00,,,-99.99,,2013-02-21 17:25:00,
2013-02-21 12:31:00,-57.0,-54.4,0.00,NNE,18,96.0,0.0,100,0.00,,,-99.99,,2013-02-21 17:31:00,
2013-02-21 12:37:00,-57.0,-54.4,0.00,NNE,18,96.0,0.0,100,0.00,,,-99.99,,2013-02-21 17:37:00,
2013-02-21 12:43:00,25.0,18.7,30.38,East,100,2.0,0.0,74,0.00,,,-99.99,,2013-02-21 17:43:00,
2013-02-21 12:49:00,25.0,19.0,30.37,East,85,0.0,0.0,75,0.00,,,-99.99,,2013-02-21 17:49:00,
2013-02-21 12:55:00,25.0,18.7,30.37,ENE,58,3.0,0.0,74,0.00,,,-99.99,,2013-02-21 17:55:00,
2013-02-21 13:01:00,25.0,18.4,30.36,ENE,66,2.0,0.0,73,0.00,,,-99.99,,2013-02-21 18:01:00,
2013-02-21 13:07:00,25.0,18.7,30.35,NE,53,2.0,0.0,74,0.00,,,-99.99,,2013-02-21 18:07:00,
2013-02-21 13:13:00,25.0,18.4,30.34,East,80,5.0,0.0,73,0.00,,,-99.99,,2013-02-21 18:13:00,
2013-02-21 13:19:00,25.0,18.4,30.34,East,89,6.0,0.0,73,0.00,,,-99.99,,2013-02-21 18:19:00,
2013-02-21 13:25:00,26.0,19.4,30.33,SE,131,1.0,0.0,73,0.00,,,-99.99,,2013-02-21 18:25:00,
2013-02-21 13:31:00,26.0,19.4,30.32,NE,52,6.0,0.0,73,0.00,,,-99.99,,2013-02-21 18:31:00,
2013-02-21 13:37:00,26.0,18.8,30.32,East,88,5.0,0.0,71,0.00,,,-99.99,,2013-02-21 18:37:00,
2013-02-21 13:43:00,-57.0,-54.4,0.00,NNE,18,96.0,0.0,100,0.00,,,-99.99,,2013-02-21 18:43:00,
2013-02-21 13:49:00,26.0,18.5,30.31,NE,47,8.0,0.0,70,0.00,,,-99.99,,2013-02-21 18:49:00,
2013-02-21 13:55:00,26.0,18.8,30.31,NE,49,7.0,0.0,71,0.00,,,-99.99,,2013-02-21 18:55:00,
2013-02-21 14:01:00,27.0,19.8,30.31,NE,52,2.0,0.0,71,0.00,,,-99.99,,2013-02-21 19:01:00,
2013-02-21 14:07:00,27.0,20.1,30.30,NE,53,6.0,0.0,72,0.00,,,-99.99,,2013-02-21 19:07:00,
2013-02-21 14:13:00,27.0,19.8,30.31,East,79,9.0,0.0,71,0.00,,,-99.99,,2013-02-21 19:13:00,
2013-02-21 14:19:00,-57.0,-54.4,0.00,NNE,18,96.0,0.0,100,0.00,,,-99.99,,2013-02-21 19:19:00,
2013-02-21 14:25:00,27.0,19.2,30.30,NE,41,6.0,0.0,69,0.00,,,-99.99,,2013-02-21 19:25:00,
2013-02-21 14:31:00,27.0,19.5,30.30,ENE,66,4.0,0.0,70,0.00,,,-99.99,,2013-02-21 19:31:00,
2013-02-21 14:37:00,-57.0,-54.4,0.00,NNE,18,96.0,0.0,100,0.00,,,-99.99,,2013-02-21 19:37:00,
2013-02-21 14:43:00,27.0,19.5,30.29,ENE,68,9.0,0.0,70,0.00,,,-99.99,,2013-02-21 19:43:00,
2013-02-21 14:49:00,27.0,19.5,30.28,ENE,66,9.0,0.0,70,0.00,,,-99.99,,2013-02-21 19:49:00,
2013-02-21 14:55:00,27.0,19.5,30.27,ENE,70,12.0,0.0,70,0.00,,,-99.99,,2013-02-21 19:55:00,
2013-02-21 15:01:00,27.0,19.5,30.27,ENE,70,10.0,0.0,70,0.00,,,-99.99,,2013-02-21 20:01:00,
2013-02-21 15:07:00,27.0,19.8,30.25,ENE,75,8.0,0.0,71,0.00,,,-99.99,,2013-02-21 20:07:00,
2013-02-21 15:13:00,-57.0,-54.4,0.00,NNE,18,96.0,0.0,100,0.00,,,-99.99,,2013-02-21 20:13:00,
2013-02-21 15:19:00,-57.0,-54.4,0.00,NNE,18,96.0,0.0,100,0.00,,,-99.99,,2013-02-21 20:19:00,
2013-02-21 15:25:00,27.0,20.1,30.26,NNE,19,7.0,0.0,72,0.00,,,-99.99,,2013-02-21 20:25:00,
2013-02-21 15:31:00,27.0,20.1,30.25,NE,37,7.0,0.0,72,0.00,,,-99.99,,2013-02-21 20:31:00,
2013-02-21 15:37:00,-57.0,-54.4,0.00,NNE,18,96.0,0.0,100,0.00,,,-99.99,,2013-02-21 20:37:00,
2013-02-21 15:43:00,27.0,20.4,30.28,ENE,69,4.0,0.0,73,0.00,,,-99.99,,2013-02-21 20:43:00,
2013-02-21 15:49:00,27.0,20.4,30.29,SE,144,6.0,0.0,73,0.00,,,-99.99,,2013-02-21 20:49:00,
2013-02-21 15:57:00,27.0,20.4,30.29,East,93,6.0,0.0,73,0.00,,,-99.99,,2013-02-21 20:57:00,
2013-02-21 16:04:00,-57.0,-54.4,0.00,NNE,18,96.0,0.0,100,0.00,,,-99.99,,2013-02-21 21:04:00,
2013-02-21 16:10:00,27.0,20.4,30.29,ENE,62,7.0,0.0,73,0.00,,,-99.99,,2013-02-21 21:10:00,
2013-02-21 16:16:00,27.0,20.6,30.29,ENE,78,8.0,0.0,74,0.00,,,-99.99,,2013-02-21 21:16:00,
2013-02-21 16:22:00,27.0,20.9,30.29,East,82,9.0,0.0,75,0.00,,,-99.99,,2013-02-21 21:22:00,
2013-02-21 16:28:00,27.0,20.9,30.29,East,96,8.0,0.0,75,0.00,,,-99.99,,2013-02-21 21:28:00,
2013-02-21 16:34:00,27.0,20.9,30.29,NE,53,2.0,0.0,75,0.00,,,-99.99,,2013-02-21 21:34:00,
2013-02-21 16:40:00,-57.0,-54.4,0.00,NNE,18,96.0,0.0,100,0.00,,,-99.99,,2013-02-21 21:40:00,
2013-02-21 16:46:00,27.0,20.9,30.29,East,86,5.0,0.0,75,0.00,,,-99.99,,2013-02-21 21:46:00,
2013-02-21 16:52:00,-57.0,-54.4,0.00,NNE,18,96.0,0.0,100,0.00,,,-99.99,,2013-02-21 21:52:00,
2013-02-21 16:58:00,27.0,20.9,30.29,ENE,64,5.0,0.0,75,0.00,,,-99.99,,2013-02-21 21:58:00,
2013-02-21 17:04:00,26.0,20.0,30.29,ENE,58,11.0,0.0,75,0.00,,,-99.99,,2013-02-21 22:04:00,
2013-02-21 17:10:00,26.0,20.2,30.29,ENE,75,10.0,0.0,76,0.00,,,-99.99,,2013-02-21 22:10:00,
2013-02-21 17:16:00,-57.0,-54.4,0.00,NNE,18,96.0,0.0,100,0.00,,,-99.99,,2013-02-21 22:16:00,
2013-02-21 17:22:00,26.0,20.5,30.29,ENE,61,10.0,0.0,77,0.00,,,-99.99,,2013-02-21 22:22:00,
2013-02-21 17:28:00,-57.0,-54.4,0.00,NNE,18,96.0,0.0,100,0.00,,,-99.99,,2013-02-21 22:28:00,
2013-02-21 17:34:00,-57.0,-54.4,0.00,NNE,18,96.0,0.0,100,0.00,,,-99.99,,2013-02-21 22:34:00,
2013-02-21 17:40:00,-57.0,-54.4,0.00,NNE,18,96.0,0.0,100,0.00,,,-99.99,,2013-02-21 22:40:00,
2013-02-21 17:46:00,-57.0,-54.4,0.00,NNE,18,96.0,0.0,100,0.00,,,-99.99,,2013-02-21 22:46:00,
2013-02-21 17:52:00,26.0,20.8,30.31,ENE,71,7.0,0.0,78,0.00,,,-99.99,,2013-02-21 22:52:00,
2013-02-21 17:58:00,26.0,20.8,30.31,East,85,10.0,0.0,78,0.00,,,-99.99,,2013-02-21 22:58:00,
2013-02-21 18:04:00,26.0,20.8,30.31,East,84,7.0,0.0,78,0.00,,,-99.99,,2013-02-21 23:04:00,
2013-02-21 18:10:00,26.0,21.0,30.31,East,83,9.0,0.0,79,0.00,,,-99.99,,2013-02-21 23:10:00,
2013-02-21 18:16:00,26.0,21.0,30.30,ENE,68,4.0,0.0,79,0.00,,,-99.99,,2013-02-21 23:16:00,
2013-02-21 18:22:00,26.0,21.3,30.30,ENE,75,11.0,0.0,80,0.00,,,-99.99,,2013-02-21 23:22:00,
2013-02-21 18:28:00,25.0,20.3,30.30,ESE,122,14.0,0.0,80,0.00,,,-99.99,,2013-02-21 23:28:00,
2013-02-21 18:34:00,25.0,20.3,30.28,NE,55,6.0,0.0,80,0.00,,,-99.99,,2013-02-21 23:34:00,
2013-02-21 18:40:00,25.0,20.3,30.28,East,79,6.0,0.0,80,0.00,,,-99.99,,2013-02-21 23:40:00,
2013-02-21 18:46:00,25.0,20.3,30.28,ENE,78,11.0,0.0,80,0.00,,,-99.99,,2013-02-21 23:46:00,
2013-02-21 18:52:00,25.0,20.3,30.28,ENE,62,10.0,0.0,80,0.00,,,-99.99,,2013-02-21 23:52:00,
2013-02-21 18:58:00,25.0,20.1,30.28,East,91,7.0,0.0,79,0.00,,,-99.99,,2013-02-21 23:58:00,
2013-02-21 19:04:00,-57.0,-54.4,0.00,NNE,18,96.0,0.0,100,0.00,,,-99.99,,2013-02-22 00:04:00,
2013-02-21 19:10:00,-57.0,-54.4,0.00,NNE,18,96.0,0.0,100,0.00,,,-99.99,,2013-02-22 00:10:00,
2013-02-21 19:16:00,25.0,20.3,30.29,East,89,11.0,0.0,80,0.00,,,-99.99,,2013-02-22 00:16:00,
2013-02-21 19:22:00,25.0,20.3,30.29,NE,39,4.0,0.0,80,0.00,,,-99.99,,2013-02-22 00:22:00,
2013-02-21 19:28:00,25.0,20.3,30.29,NE,45,8.0,0.0,80,0.00,,,-99.99,,2013-02-22 00:28:00,
2013-02-21 19:34:00,25.0,20.3,30.29,East,89,6.0,0.0,80,0.00,,,-99.99,,2013-02-22 00:34:00,
2013-02-21 19:40:00,-57.0,-54.4,0.00,NNE,18,96.0,0.0,100,0.00,,,-99.99,,2013-02-22 00:40:00,
2013-02-21 19:46:00,24.0,19.3,30.29,ENE,70,7.0,0.0,80,0.00,,,-99.99,,2013-02-22 00:46:00,
2013-02-21 19:52:00,24.0,19.1,30.29,ESE,110,13.0,0.0,79,0.00,,,-99.99,,2013-02-22 00:52:00,
2013-02-21 19:58:00,24.0,19.1,30.28,ENE,70,4.0,0.0,79,0.00,,,-99.99,,2013-02-22 00:58:00,
2013-02-21 20:04:00,24.0,19.1,30.27,East,92,7.0,0.0,79,0.00,,,-99.99,,2013-02-22 01:04:00,
2013-02-21 20:10:00,24.0,19.3,30.26,NE,56,8.0,0.0,80,0.00,,,-99.99,,2013-02-22 01:10:00,
2013-02-21 20:17:00,24.0,19.3,30.25,ENE,73,5.0,0.0,80,0.00,,,-99.99,,2013-02-22 01:17:00,
2013-02-21 20:22:00,23.0,18.4,30.25,NE,43,10.0,0.0,80,0.00,,,-99.99,,2013-02-22 01:22:00,
2013-02-21 20:28:00,23.0,18.6,30.25,ENE,75,11.0,0.0,81,0.00,,,-99.99,,2013-02-22 01:28:00,
2013-02-21 20:34:00,23.0,18.6,30.25,East,99,10.0,0.0,81,0.00,,,-99.99,,2013-02-22 01:34:00,
2013-02-21 20:40:00,23.0,18.6,30.25,NE,54,6.0,0.0,81,0.00,,,-99.99,,2013-02-22 01:40:00,
2013-02-21 20:46:00,23.0,18.6,30.25,East,84,9.0,0.0,81,0.00,,,-99.99,,2013-02-22 01:46:00,
2013-02-21 20:52:00,23.0,18.4,30.24,NE,53,9.0,0.0,80,0.00,,,-99.99,,2013-02-22 01:52:00,
2013-02-21 20:58:00,23.0,18.6,30.24,ENE,57,4.0,0.0,81,0.00,,,-99.99,,2013-02-22 01:58:00,
2013-02-21 21:04:00,-57.0,-54.4,0.00,NNE,18,96.0,0.0,100,0.00,,,-99.99,,2013-02-22 02:04:00,
2013-02-21 21:10:00,-57.0,-54.4,0.00,NNE,18,96.0,0.0,100,0.00,,,-99.99,,2013-02-22 02:10:00,
2013-02-21 21:16:00,23.0,18.4,30.24,ENE,58,9.0,0.0,80,0.00,,,-99.99,,2013-02-22 02:16:00,
2013-02-21 21:22:00,23.0,18.4,30.24,East,91,7.0,0.0,80,0.00,,,-99.99,,2013-02-22 02:22:00,
2013-02-21 21:28:00,23.0,18.6,30.25,ENE,61,7.0,0.0,81,0.00,,,-99.99,,2013-02-22 02:28:00,
2013-02-21 21:34:00,23.0,18.4,30.25,East,100,9.0,0.0,80,0.00,,,-99.99,,2013-02-22 02:34:00,
2013-02-21 21:40:00,23.0,18.4,30.24,NE,56,13.0,0.0,80,0.00,,,-99.99,,2013-02-22 02:40:00,
2013-02-21 21:46:00,23.0,18.1,30.25,ESE,117,10.0,0.0,79,0.00,,,-99.99,,2013-02-22 02:46:00,
2013-02-21 21:52:00,23.0,18.1,30.25,East,79,7.0,0.0,79,0.00,,,-99.99,,2013-02-22 02:52:00,
2013-02-21 21:58:00,23.0,18.1,30.25,ENE,75,5.0,0.0,79,0.00,,,-99.99,,2013-02-22 02:58:00,
2013-02-21 22:04:00,23.0,18.4,30.24,East,91,10.0,0.0,80,0.00,,,-99.99,,2013-02-22 03:04:00,
2013-02-21 22:10:00,23.0,18.1,30.24,ENE,73,5.0,0.0,79,0.00,,,-99.99,,2013-02-22 03:10:00,
2013-02-21 22:16:00,23.0,18.4,30.24,East,88,11.0,0.0,80,0.00,,,-99.99,,2013-02-22 03:16:00,
2013-02-21 22:22:00,23.0,18.4,30.23,ENE,75,5.0,0.0,80,0.00,,,-99.99,,2013-02-22 03:22:00,
2013-02-21 22:28:00,23.0,18.1,30.23,East,95,9.0,0.0,79,0.00,,,-99.99,,2013-02-22 03:28:00,
2013-02-21 22:34:00,22.0,17.1,30.23,ENE,69,9.0,0.0,79,0.00,,,-99.99,,2013-02-22 03:34:00,
2013-02-21 22:40:00,22.0,17.1,30.24,East,90,8.0,0.0,79,0.00,,,-99.99,,2013-02-22 03:40:00,
2013-02-21 22:46:00,22.0,17.1,30.24,ENE,73,10.0,0.0,79,0.00,,,-99.99,,2013-02-22 03:46:00,
2013-02-21 22:52:00,22.0,17.4,30.24,ENE,71,7.0,0.0,80,0.00,,,-99.99,,2013-02-22 03:52:00,
2013-02-21 22:58:00,22.0,17.1,30.23,ENE,77,5.0,0.0,79,0.00,,,-99.99,,2013-02-22 03:58:00,
2013-02-21 23:05:00,22.0,17.4,30.22,ENE,70,11.0,0.0,80,0.00,,,-99.99,,2013-02-22 04:05:00,
2013-02-21 23:10:00,22.0,17.4,30.21,ENE,77,14.0,0.0,80,0.00,,,-99.99,,2013-02-22 04:10:00,
2013-02-21 23:16:00,-57.0,-54.4,0.00,NNE,18,96.0,0.0,100,0.00,,,-99.99,,2013-02-22 04:16:00,
2013-02-21 23:22:00,22.0,17.4,30.20,ENE,68,10.0,0.0,80,0.00,,,-99.99,,2013-02-22 04:22:00,
2013-02-21 23:28:00,22.0,17.4,30.19,East,94,11.0,0.0,80,0.00,,,-99.99,,2013-02-22 04:28:00,
2013-02-21 23:34:00,-57.0,-54.4,0.00,NNE,18,96.0,0.0,100,0.00,,,-99.99,,2013-02-22 04:34:00,
2013-02-21 23:40:00,22.0,17.6,30.18,ENE,77,10.0,0.0,81,0.00,,,-99.99,,2013-02-22 04:40:00,
2013-02-21 23:46:00,22.0,17.4,30.19,East,81,16.0,0.0,80,0.00,,,-99.99,,2013-02-22 04:46:00,
2013-02-21 23:52:00,22.0,17.6,30.18,NNE,29,8.0,0.0,81,0.00,,,-99.99,,2013-02-22 04:52:00,